Year,Month,Day,Hour,Minute,Value (Times are PST for temperature in C)
2008,08,06,00,00,18.30
2008,08,06,00,01,18.30
2008,08,06,00,02,18.20
2008,08,06,00,03,18.20
2008,08,06,00,04,18.20
2008,08,06,00,05,18.20
2008,08,06,00,06,18.20
2008,08,06,00,07,18.20
2008,08,06,00,08,18.20
2008,08,06,00,09,18.20
2008,08,06,00,10,18.10
2008,08,06,00,11,18.10
2008,08,06,00,12,18.10
2008,08,06,00,13,18.10
2008,08,06,00,14,18.10
2008,08,06,00,15,18.10
2008,08,06,00,16,18.10
2008,08,06,00,17,18.10
2008,08,06,00,18,18.00
2008,08,06,00,19,18.00
2008,08,06,00,20,18.00
2008,08,06,00,21,18.00
2008,08,06,00,22,17.90
2008,08,06,00,23,17.90
2008,08,06,00,24,17.90
2008,08,06,00,25,17.90
2008,08,06,00,26,17.90
2008,08,06,00,27,17.90
2008,08,06,00,28,17.90
2008,08,06,00,29,17.80
2008,08,06,00,30,17.80
2008,08,06,00,31,17.80
2008,08,06,00,32,17.80
2008,08,06,00,33,17.80
2008,08,06,00,34,17.80
2008,08,06,00,35,17.80
2008,08,06,00,36,17.80
2008,08,06,00,37,17.70
2008,08,06,00,38,17.70
2008,08,06,00,39,17.70
2008,08,06,00,40,17.70
2008,08,06,00,41,17.70
2008,08,06,00,42,17.70
2008,08,06,00,43,17.60
2008,08,06,00,44,17.60
2008,08,06,00,45,17.60
2008,08,06,00,46,17.60
2008,08,06,00,47,17.60
2008,08,06,00,48,17.50
2008,08,06,00,49,17.50
2008,08,06,00,50,17.50
2008,08,06,00,51,17.40
2008,08,06,00,52,17.40
2008,08,06,00,53,17.40
2008,08,06,00,54,17.40
2008,08,06,00,55,17.40
2008,08,06,00,56,17.30
2008,08,06,00,57,17.30
2008,08,06,00,58,17.30
2008,08,06,00,59,17.30
2008,08,06,01,00,17.30
2008,08,06,01,01,17.20
2008,08,06,01,02,17.20
2008,08,06,01,03,17.20
2008,08,06,01,04,17.20
2008,08,06,01,05,17.20
2008,08,06,01,06,17.20
2008,08,06,01,07,17.10
2008,08,06,01,08,17.10
2008,08,06,01,09,17.10
2008,08,06,01,10,17.10
2008,08,06,01,11,17.10
2008,08,06,01,12,17.00
2008,08,06,01,13,17.00
2008,08,06,01,14,17.00
2008,08,06,01,15,16.90
2008,08,06,01,16,16.90
2008,08,06,01,17,16.90
2008,08,06,01,18,16.90
2008,08,06,01,19,16.90
2008,08,06,01,20,16.80
2008,08,06,01,21,16.80
2008,08,06,01,22,16.80
2008,08,06,01,23,16.80
2008,08,06,01,24,16.80
2008,08,06,01,25,16.80
2008,08,06,01,26,16.70
2008,08,06,01,27,16.70
2008,08,06,01,28,16.70
2008,08,06,01,29,16.70
2008,08,06,01,30,16.70
2008,08,06,01,31,16.70
2008,08,06,01,32,16.70
2008,08,06,01,33,16.70
2008,08,06,01,34,16.60
2008,08,06,01,35,16.60
2008,08,06,01,36,16.60
2008,08,06,01,37,16.60
2008,08,06,01,38,16.60
2008,08,06,01,39,16.60
2008,08,06,01,40,16.50
2008,08,06,01,41,16.50
2008,08,06,01,42,16.50
2008,08,06,01,43,16.50
2008,08,06,01,44,16.40
2008,08,06,01,45,16.40
2008,08,06,01,46,16.40
2008,08,06,01,47,16.40
2008,08,06,01,48,16.40
2008,08,06,01,49,16.40
2008,08,06,01,50,16.40
2008,08,06,01,51,16.30
2008,08,06,01,52,16.30
2008,08,06,01,53,16.30
2008,08,06,01,54,16.30
2008,08,06,01,55,16.30
2008,08,06,01,56,16.30
2008,08,06,01,57,16.30
2008,08,06,01,58,16.30
2008,08,06,01,59,16.30
2008,08,06,02,00,16.20
2008,08,06,02,01,16.20
2008,08,06,02,02,16.20
2008,08,06,02,03,16.20
2008,08,06,02,04,16.20
2008,08,06,02,05,16.20
2008,08,06,02,06,16.20
2008,08,06,02,07,16.10
2008,08,06,02,08,16.10
2008,08,06,02,09,16.10
2008,08,06,02,10,16.10
2008,08,06,02,11,16.10
2008,08,06,02,12,16.10
2008,08,06,02,13,16.10
2008,08,06,02,14,16.00
2008,08,06,02,15,16.00
2008,08,06,02,16,16.00
2008,08,06,02,17,16.00
2008,08,06,02,18,16.00
2008,08,06,02,19,16.00
2008,08,06,02,20,15.90
2008,08,06,02,21,15.90
2008,08,06,02,22,15.90
2008,08,06,02,23,15.90
2008,08,06,02,24,15.90
2008,08,06,02,25,15.90
2008,08,06,02,26,15.90
2008,08,06,02,27,15.90
2008,08,06,02,28,15.90
2008,08,06,02,29,15.90
2008,08,06,02,30,15.80
2008,08,06,02,31,15.80
2008,08,06,02,32,15.80
2008,08,06,02,33,15.80
2008,08,06,02,34,15.80
2008,08,06,02,35,15.80
2008,08,06,02,36,15.80
2008,08,06,02,37,15.80
2008,08,06,02,38,15.80
2008,08,06,02,39,15.80
2008,08,06,02,40,15.80
2008,08,06,02,41,15.80
2008,08,06,02,42,15.80
2008,08,06,02,43,15.80
2008,08,06,02,44,15.80
2008,08,06,02,45,15.80
2008,08,06,02,46,15.80
2008,08,06,02,47,15.80
2008,08,06,02,48,15.80
2008,08,06,02,49,15.80
2008,08,06,02,50,15.80
2008,08,06,02,51,15.80
2008,08,06,02,52,15.80
2008,08,06,02,53,15.80
2008,08,06,02,54,15.80
2008,08,06,02,55,15.90
2008,08,06,02,56,15.90
2008,08,06,02,57,15.90
2008,08,06,02,58,15.90
2008,08,06,02,59,15.90
2008,08,06,03,00,15.90
2008,08,06,03,01,15.90
2008,08,06,03,02,15.90
2008,08,06,03,03,15.80
2008,08,06,03,04,15.80
2008,08,06,03,05,15.80
2008,08,06,03,06,15.80
2008,08,06,03,07,15.80
2008,08,06,03,08,15.80
2008,08,06,03,09,15.70
2008,08,06,03,10,15.70
2008,08,06,03,11,15.70
2008,08,06,03,12,15.70
2008,08,06,03,13,15.70
2008,08,06,03,14,15.60
2008,08,06,03,15,15.60
2008,08,06,03,16,15.60
2008,08,06,03,17,15.60
2008,08,06,03,18,15.60
2008,08,06,03,19,15.50
2008,08,06,03,20,15.50
2008,08,06,03,21,15.50
2008,08,06,03,22,15.50
2008,08,06,03,23,15.40
2008,08,06,03,24,15.40
2008,08,06,03,25,15.40
2008,08,06,03,26,15.40
2008,08,06,03,27,15.40
2008,08,06,03,28,15.40
2008,08,06,03,29,15.40
2008,08,06,03,30,15.40
2008,08,06,03,31,15.40
2008,08,06,03,32,15.40
2008,08,06,03,33,15.30
2008,08,06,03,34,15.30
2008,08,06,03,35,15.30
2008,08,06,03,36,15.30
2008,08,06,03,37,15.30
2008,08,06,03,38,15.30
2008,08,06,03,39,15.30
2008,08,06,03,40,15.30
2008,08,06,03,41,15.30
2008,08,06,03,42,15.30
2008,08,06,03,43,15.30
2008,08,06,03,44,15.30
2008,08,06,03,45,15.30
2008,08,06,03,46,15.20
2008,08,06,03,47,15.20
2008,08,06,03,48,15.20
2008,08,06,03,49,15.20
2008,08,06,03,50,15.20
2008,08,06,03,51,15.20
2008,08,06,03,52,15.20
2008,08,06,03,53,15.20
2008,08,06,03,54,15.20
2008,08,06,03,55,15.20
2008,08,06,03,56,15.20
2008,08,06,03,57,15.20
2008,08,06,03,58,15.20
2008,08,06,03,59,15.20
2008,08,06,04,00,15.20
2008,08,06,04,01,15.10
2008,08,06,04,02,15.10
2008,08,06,04,03,15.10
2008,08,06,04,04,15.10
2008,08,06,04,05,15.00
2008,08,06,04,06,15.00
2008,08,06,04,07,15.00
2008,08,06,04,08,15.00
2008,08,06,04,09,15.00
2008,08,06,04,10,15.00
2008,08,06,04,11,15.00
2008,08,06,04,12,15.00
2008,08,06,04,13,15.00
2008,08,06,04,14,15.00
2008,08,06,04,15,15.00
2008,08,06,04,16,15.00
2008,08,06,04,17,15.00
2008,08,06,04,18,15.00
2008,08,06,04,19,15.00
2008,08,06,04,20,15.00
2008,08,06,04,21,15.00
2008,08,06,04,22,15.00
2008,08,06,04,23,15.00
2008,08,06,04,24,15.00
2008,08,06,04,25,15.00
2008,08,06,04,26,15.00
2008,08,06,04,27,15.00
2008,08,06,04,28,15.00
2008,08,06,04,29,15.00
2008,08,06,04,30,15.00
2008,08,06,04,31,15.00
2008,08,06,04,32,15.00
2008,08,06,04,33,15.00
2008,08,06,04,34,15.00
2008,08,06,04,35,15.00
2008,08,06,04,36,15.00
2008,08,06,04,37,15.00
2008,08,06,04,38,15.00
2008,08,06,04,39,15.00
2008,08,06,04,40,15.00
2008,08,06,04,41,15.00
2008,08,06,04,42,15.00
2008,08,06,04,43,15.00
2008,08,06,04,44,14.90
2008,08,06,04,45,14.90
2008,08,06,04,46,14.90
2008,08,06,04,47,14.90
2008,08,06,04,48,14.90
2008,08,06,04,49,14.90
2008,08,06,04,50,14.90
2008,08,06,04,51,14.90
2008,08,06,04,52,14.90
2008,08,06,04,53,14.80
2008,08,06,04,54,14.80
2008,08,06,04,55,14.80
2008,08,06,04,56,14.80
2008,08,06,04,57,14.80
2008,08,06,04,58,14.80
2008,08,06,04,59,14.80
2008,08,06,05,00,14.80
2008,08,06,05,01,14.80
2008,08,06,05,02,14.70
2008,08,06,05,03,14.70
2008,08,06,05,04,14.70
2008,08,06,05,05,14.70
2008,08,06,05,06,14.70
2008,08,06,05,07,14.70
2008,08,06,05,08,14.70
2008,08,06,05,09,14.70
2008,08,06,05,10,14.70
2008,08,06,05,11,14.60
2008,08,06,05,12,14.60
2008,08,06,05,13,14.60
2008,08,06,05,14,14.60
2008,08,06,05,15,14.60
2008,08,06,05,16,14.60
2008,08,06,05,17,14.60
2008,08,06,05,18,14.60
2008,08,06,05,19,14.60
2008,08,06,05,20,14.50
2008,08,06,05,21,14.50
2008,08,06,05,22,14.50
2008,08,06,05,23,14.50
2008,08,06,05,24,14.50
2008,08,06,05,25,14.50
2008,08,06,05,26,14.50
2008,08,06,05,27,14.40
2008,08,06,05,28,14.40
2008,08,06,05,29,14.40
2008,08,06,05,30,14.40
2008,08,06,05,31,14.40
2008,08,06,05,32,14.40
2008,08,06,05,33,14.40
2008,08,06,05,34,14.40
2008,08,06,05,35,14.40
2008,08,06,05,36,14.30
2008,08,06,05,37,14.30
2008,08,06,05,38,14.30
2008,08,06,05,39,14.30
2008,08,06,05,40,14.30
2008,08,06,05,41,14.30
2008,08,06,05,42,14.30
2008,08,06,05,43,14.30
2008,08,06,05,44,14.30
2008,08,06,05,45,14.30
2008,08,06,05,46,14.30
2008,08,06,05,47,14.20
2008,08,06,05,48,14.20
2008,08,06,05,49,14.20
2008,08,06,05,50,14.20
2008,08,06,05,51,14.20
2008,08,06,05,52,14.20
2008,08,06,05,53,14.20
2008,08,06,05,54,14.20
2008,08,06,05,55,14.20
2008,08,06,05,56,14.20
2008,08,06,05,57,14.20
2008,08,06,05,58,14.20
2008,08,06,05,59,14.20
2008,08,06,06,00,14.20
2008,08,06,06,01,14.20
2008,08,06,06,02,14.10
2008,08,06,06,03,14.10
2008,08,06,06,04,14.10
2008,08,06,06,05,14.10
2008,08,06,06,06,14.10
2008,08,06,06,07,14.10
2008,08,06,06,08,14.10
2008,08,06,06,09,14.10
2008,08,06,06,10,14.10
2008,08,06,06,11,14.10
2008,08,06,06,12,14.10
2008,08,06,06,13,14.10
2008,08,06,06,14,14.10
2008,08,06,06,15,14.10
2008,08,06,06,16,14.10
2008,08,06,06,17,14.10
2008,08,06,06,18,14.10
2008,08,06,06,19,14.10
2008,08,06,06,20,14.00
2008,08,06,06,21,14.00
2008,08,06,06,22,14.00
2008,08,06,06,23,14.00
2008,08,06,06,24,14.00
2008,08,06,06,25,14.00
2008,08,06,06,26,14.00
2008,08,06,06,27,14.00
2008,08,06,06,28,14.00
2008,08,06,06,29,14.00
2008,08,06,06,30,14.00
2008,08,06,06,31,14.00
2008,08,06,06,32,13.90
2008,08,06,06,33,13.90
2008,08,06,06,34,13.90
2008,08,06,06,35,13.90
2008,08,06,06,36,13.90
2008,08,06,06,37,13.90
2008,08,06,06,38,13.90
2008,08,06,06,39,13.90
2008,08,06,06,40,13.90
2008,08,06,06,41,13.90
2008,08,06,06,42,13.90
2008,08,06,06,43,13.90
2008,08,06,06,44,13.90
2008,08,06,06,45,13.90
2008,08,06,06,46,13.90
2008,08,06,06,47,13.90
2008,08,06,06,48,13.90
2008,08,06,06,49,13.90
2008,08,06,06,50,13.90
2008,08,06,06,51,13.90
2008,08,06,06,52,13.90
2008,08,06,06,53,13.90
2008,08,06,06,54,13.90
2008,08,06,06,55,13.90
2008,08,06,06,56,13.90
2008,08,06,06,57,13.90
2008,08,06,06,58,13.90
2008,08,06,06,59,13.90
2008,08,06,07,00,13.90
2008,08,06,07,01,13.90
2008,08,06,07,02,13.90
2008,08,06,07,03,13.90
2008,08,06,07,04,13.90
2008,08,06,07,05,13.90
2008,08,06,07,06,13.90
2008,08,06,07,07,13.90
2008,08,06,07,08,13.90
2008,08,06,07,09,13.90
2008,08,06,07,10,13.90
2008,08,06,07,11,13.90
2008,08,06,07,12,13.90
2008,08,06,07,13,14.00
2008,08,06,07,14,14.00
2008,08,06,07,15,14.00
2008,08,06,07,16,14.00
2008,08,06,07,17,14.00
2008,08,06,07,18,14.00
2008,08,06,07,19,14.00
2008,08,06,07,20,14.00
2008,08,06,07,21,14.00
2008,08,06,07,22,14.00
2008,08,06,07,23,14.00
2008,08,06,07,24,14.00
2008,08,06,07,25,14.10
2008,08,06,07,26,14.10
2008,08,06,07,27,14.10
2008,08,06,07,28,14.10
2008,08,06,07,29,14.10
2008,08,06,07,30,14.10
2008,08,06,07,31,14.10
2008,08,06,07,32,14.10
2008,08,06,07,33,14.10
2008,08,06,07,34,14.10
2008,08,06,07,35,14.10
2008,08,06,07,36,14.10
2008,08,06,07,37,14.10
2008,08,06,07,38,14.20
2008,08,06,07,39,14.20
2008,08,06,07,40,14.20
2008,08,06,07,41,14.20
2008,08,06,07,42,14.20
2008,08,06,07,43,14.20
2008,08,06,07,44,14.20
2008,08,06,07,45,14.30
2008,08,06,07,46,14.30
2008,08,06,07,47,14.30
2008,08,06,07,48,14.30
2008,08,06,07,49,14.30
2008,08,06,07,50,14.30
2008,08,06,07,51,14.30
2008,08,06,07,52,14.30
2008,08,06,07,53,14.40
2008,08,06,07,54,14.40
2008,08,06,07,55,14.40
2008,08,06,07,56,14.40
2008,08,06,07,57,14.40
2008,08,06,07,58,14.40
2008,08,06,07,59,14.50
2008,08,06,08,00,14.50
2008,08,06,08,01,14.50
2008,08,06,08,02,14.60
2008,08,06,08,03,14.60
2008,08,06,08,04,14.60
2008,08,06,08,05,14.70
2008,08,06,08,06,14.70
2008,08,06,08,07,14.70
2008,08,06,08,08,14.70
2008,08,06,08,09,14.80
2008,08,06,08,10,14.80
2008,08,06,08,11,14.80
2008,08,06,08,12,14.80
2008,08,06,08,13,14.90
2008,08,06,08,14,14.90
2008,08,06,08,15,15.00
2008,08,06,08,16,15.00
2008,08,06,08,17,15.00
2008,08,06,08,18,15.00
2008,08,06,08,19,15.00
2008,08,06,08,20,15.00
2008,08,06,08,21,15.00
2008,08,06,08,22,15.00
2008,08,06,08,23,15.00
2008,08,06,08,24,15.10
2008,08,06,08,25,15.20
2008,08,06,08,26,15.20
2008,08,06,08,27,15.30
2008,08,06,08,28,15.30
2008,08,06,08,29,15.40
2008,08,06,08,30,15.40
2008,08,06,08,31,15.50
2008,08,06,08,32,15.50
2008,08,06,08,33,15.50
2008,08,06,08,34,15.60
2008,08,06,08,35,15.60
2008,08,06,08,36,15.70
2008,08,06,08,37,15.70
2008,08,06,08,38,15.80
2008,08,06,08,39,15.80
2008,08,06,08,40,15.90
2008,08,06,08,41,15.90
2008,08,06,08,42,16.00
2008,08,06,08,43,16.10
2008,08,06,08,44,16.10
2008,08,06,08,45,16.20
2008,08,06,08,46,16.20
2008,08,06,08,47,16.20
2008,08,06,08,48,16.20
2008,08,06,08,49,16.30
2008,08,06,08,50,16.30
2008,08,06,08,51,16.30
2008,08,06,08,52,16.40
2008,08,06,08,53,16.40
2008,08,06,08,54,16.50
2008,08,06,08,55,16.50
2008,08,06,08,56,16.60
2008,08,06,08,57,16.60
2008,08,06,08,58,16.60
2008,08,06,08,59,16.70
2008,08,06,09,00,16.80
2008,08,06,09,01,16.80
2008,08,06,09,02,16.90
2008,08,06,09,03,16.90
2008,08,06,09,04,17.00
2008,08,06,09,05,17.10
2008,08,06,09,06,17.10
2008,08,06,09,07,17.20
2008,08,06,09,08,17.20
2008,08,06,09,09,17.30
2008,08,06,09,10,17.30
2008,08,06,09,11,17.40
2008,08,06,09,12,17.40
2008,08,06,09,13,17.50
2008,08,06,09,14,17.60
2008,08,06,09,15,17.60
2008,08,06,09,16,17.60
2008,08,06,09,17,17.70
2008,08,06,09,18,17.70
2008,08,06,09,19,17.80
2008,08,06,09,20,17.80
2008,08,06,09,21,17.90
2008,08,06,09,22,17.90
2008,08,06,09,23,18.00
2008,08,06,09,24,18.10
2008,08,06,09,25,18.20
2008,08,06,09,26,18.20
2008,08,06,09,27,18.30
2008,08,06,09,28,18.30
2008,08,06,09,29,18.40
2008,08,06,09,30,18.50
2008,08,06,09,31,18.50
2008,08,06,09,32,18.60
2008,08,06,09,33,18.60
2008,08,06,09,34,18.70
2008,08,06,09,35,18.70
2008,08,06,09,36,18.80
2008,08,06,09,37,18.80
2008,08,06,09,38,18.90
2008,08,06,09,39,18.90
2008,08,06,09,40,19.00
2008,08,06,09,41,19.00
2008,08,06,09,42,19.10
2008,08,06,09,43,19.10
2008,08,06,09,44,19.20
2008,08,06,09,45,19.30
2008,08,06,09,46,19.40
2008,08,06,09,47,19.40
2008,08,06,09,48,19.50
2008,08,06,09,49,19.60
2008,08,06,09,50,19.70
2008,08,06,09,51,19.80
2008,08,06,09,52,19.90
2008,08,06,09,53,20.00
2008,08,06,09,54,20.20
2008,08,06,09,55,20.30
2008,08,06,09,56,20.40
2008,08,06,09,57,20.50
2008,08,06,09,58,20.60
2008,08,06,09,59,20.70
2008,08,06,10,00,20.70
2008,08,06,10,01,20.80
2008,08,06,10,02,20.90
2008,08,06,10,03,21.00
2008,08,06,10,04,21.10
2008,08,06,10,05,21.10
2008,08,06,10,06,21.20
2008,08,06,10,07,21.30
2008,08,06,10,08,21.30
2008,08,06,10,09,21.40
2008,08,06,10,10,21.50
2008,08,06,10,11,21.60
2008,08,06,10,12,21.70
2008,08,06,10,13,21.80
2008,08,06,10,14,21.80
2008,08,06,10,15,21.90
2008,08,06,10,16,22.00
2008,08,06,10,17,22.10
2008,08,06,10,18,22.20
2008,08,06,10,19,22.30
2008,08,06,10,20,22.30
2008,08,06,10,21,22.40
2008,08,06,10,22,22.40
2008,08,06,10,23,22.50
2008,08,06,10,24,22.60
2008,08,06,10,25,22.60
2008,08,06,10,26,22.70
2008,08,06,10,27,22.70
2008,08,06,10,28,22.70
2008,08,06,10,29,22.80
2008,08,06,10,30,22.80
2008,08,06,10,31,22.90
2008,08,06,10,32,22.90
2008,08,06,10,33,22.90
2008,08,06,10,34,23.00
2008,08,06,10,35,23.10
2008,08,06,10,36,23.10
2008,08,06,10,37,23.20
2008,08,06,10,38,23.20
2008,08,06,10,39,23.30
2008,08,06,10,40,23.30
2008,08,06,10,41,23.40
2008,08,06,10,42,23.40
2008,08,06,10,43,23.40
2008,08,06,10,44,23.50
2008,08,06,10,45,23.50
2008,08,06,10,46,23.60
2008,08,06,10,47,23.70
2008,08,06,10,48,23.70
2008,08,06,10,49,23.80
2008,08,06,10,50,23.80
2008,08,06,10,51,23.90
2008,08,06,10,52,23.90
2008,08,06,10,53,24.00
2008,08,06,10,54,24.10
2008,08,06,10,55,24.20
2008,08,06,10,56,24.20
2008,08,06,10,57,24.30
2008,08,06,10,58,24.40
2008,08,06,10,59,24.50
2008,08,06,11,00,24.50
2008,08,06,11,01,24.60
2008,08,06,11,02,24.60
2008,08,06,11,03,24.70
2008,08,06,11,04,24.70
2008,08,06,11,05,24.70
2008,08,06,11,06,24.80
2008,08,06,11,07,24.80
2008,08,06,11,08,24.80
2008,08,06,11,09,24.90
2008,08,06,11,10,24.90
2008,08,06,11,11,24.90
2008,08,06,11,12,25.00
2008,08,06,11,13,25.00
2008,08,06,11,14,25.10
2008,08,06,11,15,25.10
2008,08,06,11,16,25.20
2008,08,06,11,17,25.30
2008,08,06,11,18,25.30
2008,08,06,11,19,25.40
2008,08,06,11,20,25.50
2008,08,06,11,21,25.60
2008,08,06,11,22,25.70
2008,08,06,11,23,25.80
2008,08,06,11,24,25.90
2008,08,06,11,25,26.00
2008,08,06,11,26,26.10
2008,08,06,11,27,26.20
2008,08,06,11,28,26.30
2008,08,06,11,29,26.50
2008,08,06,11,30,26.60
2008,08,06,11,31,26.80
2008,08,06,11,32,26.90
2008,08,06,11,33,27.00
2008,08,06,11,34,27.10
2008,08,06,11,35,27.20
2008,08,06,11,36,27.30
2008,08,06,11,37,27.40
2008,08,06,11,38,27.50
2008,08,06,11,39,27.60
2008,08,06,11,40,27.60
2008,08,06,11,41,27.70
2008,08,06,11,42,27.80
2008,08,06,11,43,27.80
2008,08,06,11,44,27.90
2008,08,06,11,45,27.90
2008,08,06,11,46,28.00
2008,08,06,11,47,28.10
2008,08,06,11,48,28.10
2008,08,06,11,49,28.20
2008,08,06,11,50,28.20
2008,08,06,11,51,28.30
2008,08,06,11,52,28.30
2008,08,06,11,53,28.30
2008,08,06,11,54,28.40
2008,08,06,11,55,28.40
2008,08,06,11,56,28.40
2008,08,06,11,57,28.40
2008,08,06,11,58,28.50
2008,08,06,11,59,28.50
2008,08,06,12,00,28.60
2008,08,06,12,01,28.60
2008,08,06,12,02,28.70
2008,08,06,12,03,28.70
2008,08,06,12,04,28.80
2008,08,06,12,05,28.80
2008,08,06,12,06,28.90
2008,08,06,12,07,28.90
2008,08,06,12,08,28.90
2008,08,06,12,09,28.90
2008,08,06,12,10,28.90
2008,08,06,12,11,29.00
2008,08,06,12,12,29.00
2008,08,06,12,13,29.10
2008,08,06,12,14,29.20
2008,08,06,12,15,29.20
2008,08,06,12,16,29.30
2008,08,06,12,17,29.30
2008,08,06,12,18,29.30
2008,08,06,12,19,29.30
2008,08,06,12,20,29.30
2008,08,06,12,21,29.30
2008,08,06,12,22,29.30
2008,08,06,12,23,29.30
2008,08,06,12,24,29.30
2008,08,06,12,25,29.30
2008,08,06,12,26,29.30
2008,08,06,12,27,29.20
2008,08,06,12,28,29.20
2008,08,06,12,29,29.20
2008,08,06,12,30,29.20
2008,08,06,12,31,29.20
2008,08,06,12,32,29.30
2008,08,06,12,33,29.30
2008,08,06,12,34,29.30
2008,08,06,12,35,29.30
2008,08,06,12,36,29.30
2008,08,06,12,37,29.30
2008,08,06,12,38,29.30
2008,08,06,12,39,29.30
2008,08,06,12,40,29.30
2008,08,06,12,41,29.30
2008,08,06,12,42,29.30
2008,08,06,12,43,29.30
2008,08,06,12,44,29.30
2008,08,06,12,45,29.30
2008,08,06,12,46,29.30
2008,08,06,12,47,29.20
2008,08,06,12,48,29.20
2008,08,06,12,49,29.10
2008,08,06,12,50,29.10
2008,08,06,12,51,29.10
2008,08,06,12,52,29.10
2008,08,06,12,53,29.10
2008,08,06,12,54,29.10
2008,08,06,12,55,29.20
2008,08,06,12,56,29.10
2008,08,06,12,57,29.10
2008,08,06,12,58,29.10
2008,08,06,12,59,29.20
2008,08,06,13,00,29.20
2008,08,06,13,01,29.20
2008,08,06,13,02,29.20
2008,08,06,13,03,29.20
2008,08,06,13,04,29.20
2008,08,06,13,05,29.20
2008,08,06,13,06,29.20
2008,08,06,13,07,29.10
2008,08,06,13,08,29.10
2008,08,06,13,09,29.00
2008,08,06,13,10,28.90
2008,08,06,13,11,28.90
2008,08,06,13,12,28.90
2008,08,06,13,13,28.90
2008,08,06,13,14,28.90
2008,08,06,13,15,28.90
2008,08,06,13,16,28.90
2008,08,06,13,17,28.90
2008,08,06,13,18,28.90
2008,08,06,13,19,28.90
2008,08,06,13,20,28.90
2008,08,06,13,21,28.90
2008,08,06,13,22,28.90
2008,08,06,13,23,28.90
2008,08,06,13,24,28.90
2008,08,06,13,25,29.00
2008,08,06,13,26,29.00
2008,08,06,13,27,29.10
2008,08,06,13,28,29.00
2008,08,06,13,29,29.00
2008,08,06,13,30,28.90
2008,08,06,13,31,29.00
2008,08,06,13,32,28.90
2008,08,06,13,33,28.90
2008,08,06,13,34,28.90
2008,08,06,13,35,28.90
2008,08,06,13,36,29.00
2008,08,06,13,37,29.10
2008,08,06,13,38,29.20
2008,08,06,13,39,29.20
2008,08,06,13,40,29.20
2008,08,06,13,41,29.30
2008,08,06,13,42,29.40
2008,08,06,13,43,29.50
2008,08,06,13,44,29.60
2008,08,06,13,45,29.70
2008,08,06,13,46,29.70
2008,08,06,13,47,29.80
2008,08,06,13,48,29.80
2008,08,06,13,49,29.90
2008,08,06,13,50,30.00
2008,08,06,13,51,30.00
2008,08,06,13,52,30.10
2008,08,06,13,53,30.20
2008,08,06,13,54,30.30
2008,08,06,13,55,30.30
2008,08,06,13,56,30.30
2008,08,06,13,57,30.40
2008,08,06,13,58,30.50
2008,08,06,13,59,30.60
2008,08,06,14,00,30.60
2008,08,06,14,01,30.60
2008,08,06,14,02,30.70
2008,08,06,14,03,30.80
2008,08,06,14,04,30.90
2008,08,06,14,05,31.00
2008,08,06,14,06,31.10
2008,08,06,14,07,31.20
2008,08,06,14,08,31.20
2008,08,06,14,09,31.30
2008,08,06,14,10,31.30
2008,08,06,14,11,31.30
2008,08,06,14,12,31.30
2008,08,06,14,13,31.30
2008,08,06,14,14,31.20
2008,08,06,14,15,31.20
2008,08,06,14,16,31.20
2008,08,06,14,17,31.20
2008,08,06,14,18,31.20
2008,08,06,14,19,31.20
2008,08,06,14,20,31.30
2008,08,06,14,21,31.30
2008,08,06,14,22,31.40
2008,08,06,14,23,31.50
2008,08,06,14,24,31.60
2008,08,06,14,25,31.70
2008,08,06,14,26,31.70
2008,08,06,14,27,31.80
2008,08,06,14,28,31.80
2008,08,06,14,29,31.80
2008,08,06,14,30,31.90
2008,08,06,14,31,31.90
2008,08,06,14,32,32.00
2008,08,06,14,33,32.10
2008,08,06,14,34,32.20
2008,08,06,14,35,32.20
2008,08,06,14,36,32.30
2008,08,06,14,37,32.40
2008,08,06,14,38,32.50
2008,08,06,14,39,32.60
2008,08,06,14,40,32.70
2008,08,06,14,41,32.70
2008,08,06,14,42,32.70
2008,08,06,14,43,32.60
2008,08,06,14,44,32.50
2008,08,06,14,45,32.50
2008,08,06,14,46,32.60
2008,08,06,14,47,32.60
2008,08,06,14,48,32.60
2008,08,06,14,49,32.60
2008,08,06,14,50,32.70
2008,08,06,14,51,32.70
2008,08,06,14,52,32.70
2008,08,06,14,53,32.80
2008,08,06,14,54,32.90
2008,08,06,14,55,32.90
2008,08,06,14,56,33.00
2008,08,06,14,57,33.00
2008,08,06,14,58,33.10
2008,08,06,14,59,33.10
2008,08,06,15,00,33.10
2008,08,06,15,01,33.20
2008,08,06,15,02,33.20
2008,08,06,15,03,33.30
2008,08,06,15,04,33.40
2008,08,06,15,05,33.40
2008,08,06,15,06,33.50
2008,08,06,15,07,33.50
2008,08,06,15,08,33.60
2008,08,06,15,09,33.60
2008,08,06,15,10,33.70
2008,08,06,15,11,33.70
2008,08,06,15,12,33.70
2008,08,06,15,13,33.70
2008,08,06,15,14,33.70
2008,08,06,15,15,33.60
2008,08,06,15,16,33.60
2008,08,06,15,17,33.60
2008,08,06,15,18,33.60
2008,08,06,15,19,33.60
2008,08,06,15,20,33.70
2008,08,06,15,21,33.70
2008,08,06,15,22,33.70
2008,08,06,15,23,33.80
2008,08,06,15,24,33.80
2008,08,06,15,25,33.80
2008,08,06,15,26,33.80
2008,08,06,15,27,33.80
2008,08,06,15,28,33.70
2008,08,06,15,29,33.70
2008,08,06,15,30,33.70
2008,08,06,15,31,33.70
2008,08,06,15,32,33.60
2008,08,06,15,33,33.50
2008,08,06,15,34,33.50
2008,08,06,15,35,33.50
2008,08,06,15,36,33.60
2008,08,06,15,37,33.60
2008,08,06,15,38,33.50
2008,08,06,15,39,33.50
2008,08,06,15,40,33.60
2008,08,06,15,41,33.60
2008,08,06,15,42,33.60
2008,08,06,15,43,33.70
2008,08,06,15,44,33.70
2008,08,06,15,45,33.70
2008,08,06,15,46,33.70
2008,08,06,15,47,33.80
2008,08,06,15,48,33.80
2008,08,06,15,49,33.80
2008,08,06,15,50,33.90
2008,08,06,15,51,33.90
2008,08,06,15,52,33.90
2008,08,06,15,53,33.90
2008,08,06,15,54,33.90
2008,08,06,15,55,33.90
2008,08,06,15,56,33.90
2008,08,06,15,57,33.80
2008,08,06,15,58,33.70
2008,08,06,15,59,33.70
2008,08,06,16,00,33.60
2008,08,06,16,01,33.60
2008,08,06,16,02,33.60
2008,08,06,16,03,33.60
2008,08,06,16,04,33.60
2008,08,06,16,05,33.60
2008,08,06,16,06,33.50
2008,08,06,16,07,33.50
2008,08,06,16,08,33.40
2008,08,06,16,09,33.40
2008,08,06,16,10,33.30
2008,08,06,16,11,33.30
2008,08,06,16,12,33.30
2008,08,06,16,13,33.20
2008,08,06,16,14,33.20
2008,08,06,16,15,33.10
2008,08,06,16,16,33.00
2008,08,06,16,17,32.90
2008,08,06,16,18,32.80
2008,08,06,16,19,32.70
2008,08,06,16,20,32.60
2008,08,06,16,21,32.50
2008,08,06,16,22,32.50
2008,08,06,16,23,32.40
2008,08,06,16,24,32.40
2008,08,06,16,25,32.40
2008,08,06,16,26,32.40
2008,08,06,16,27,32.40
2008,08,06,16,28,32.40
2008,08,06,16,29,32.40
2008,08,06,16,30,32.30
2008,08,06,16,31,32.30
2008,08,06,16,32,32.30
2008,08,06,16,33,32.30
2008,08,06,16,34,32.30
2008,08,06,16,35,32.40
2008,08,06,16,36,32.40
2008,08,06,16,37,32.40
2008,08,06,16,38,32.50
2008,08,06,16,39,32.50
2008,08,06,16,40,32.60
2008,08,06,16,41,32.60
2008,08,06,16,42,32.70
2008,08,06,16,43,32.70
2008,08,06,16,44,32.70
2008,08,06,16,45,32.70
2008,08,06,16,46,32.60
2008,08,06,16,47,32.60
2008,08,06,16,48,32.60
2008,08,06,16,49,32.60
2008,08,06,16,50,32.60
2008,08,06,16,51,32.60
2008,08,06,16,52,32.60
2008,08,06,16,53,32.60
2008,08,06,16,54,32.60
2008,08,06,16,55,32.70
2008,08,06,16,56,32.70
2008,08,06,16,57,32.80
2008,08,06,16,58,32.80
2008,08,06,16,59,32.80
2008,08,06,17,00,32.80
2008,08,06,17,01,32.90
2008,08,06,17,02,32.90
2008,08,06,17,03,32.90
2008,08,06,17,04,32.90
2008,08,06,17,05,32.90
2008,08,06,17,06,32.90
2008,08,06,17,07,32.80
2008,08,06,17,08,32.80
2008,08,06,17,09,32.80
2008,08,06,17,10,32.70
2008,08,06,17,11,32.70
2008,08,06,17,12,32.70
2008,08,06,17,13,32.70
2008,08,06,17,14,32.70
2008,08,06,17,15,32.70
2008,08,06,17,16,32.70
2008,08,06,17,17,32.70
2008,08,06,17,18,32.70
2008,08,06,17,19,32.80